Location: Bonn
(50.7330°N, 7.1000°E)
Time: 22:02:24
(UTC+02:00)

Cosmos 1933 Rocket - Visible Passes

Search period start: 28 May 2016 00:00
Search period end: 07 June 2016 00:00
Orbit: 608 x 630 km, 82.5° (Epoch: 28 May)

Date Brightness Start Highest point End Pass type
(mag) Time Alt. Az. Time Alt. Az. Time Alt. Az.
28 May 4.6 03:07:56 14° SSE 03:11:21 41° E 03:15:31 10° NNE visible
29 May 3.7 03:25:15 17° S 03:28:35 72° E 03:33:01 10° NNE visible
30 May 5.9 02:05:59 10° ESE 02:08:35 16° E 02:11:11 10° NE visible
30 May 3.7 03:42:33 17° SSW 03:45:54 66° WNW 03:50:19 10° N visible
31 May 5.3 02:22:42 13° SE 02:25:38 26° E 02:29:17 10° NNE visible
31 May 4.4 03:59:51 14° SW 04:03:19 38° WNW 04:07:29 10° N visible
01 Jun 4.4 02:39:58 19° SSE 02:42:46 43° E 02:46:58 10° NNE visible
01 Jun 5.1 04:17:15 10° WSW 04:20:50 24° WNW 04:24:28 10° NNW visible
02 Jun 3.6 02:57:14 22° S 02:59:59 75° E 03:04:26 10° NNE visible
02 Jun 5.6 04:35:50 10° W 04:38:27 15° WNW 04:41:05 10° NNW visible
03 Jun 5.8 01:37:20 10° ESE 01:39:58 16° E 01:42:42 10° NE visible
03 Jun 3.7 03:14:29 21° SSW 03:17:19 63° WNW 03:21:45 10° N visible
04 Jun 5.1 01:54:34 17° SE 01:57:01 27° E 02:00:44 10° NNE visible
04 Jun 4.5 03:31:43 16° SW 03:34:44 37° WNW 03:38:54 10° N visible
05 Jun 4.3 02:11:47 23° SSE 02:14:09 45° E 02:18:24 10° NNE visible
05 Jun 5.2 03:48:56 11° WSW 03:52:15 23° WNW 03:55:50 10° NNW visible
06 Jun 3.6 02:29:00 27° S 02:31:23 79° E 02:35:51 10° NNE visible
06 Jun 5.7 04:07:22 10° W 04:09:54 15° WNW 04:12:26 10° NNW visible
